Regional Weather Roundup
Issued by NWS Newport/Morehead, NC

Current Version | Previous Version | Graphics & Text | Print | Product List | Glossary Off
Versions: 1 2 3 4 5 6 7 8 9 10 11 12 13 14 15 16 17 18 19 20 21 22 23 24 25 26 27 28 29 30 31 32 33 34 35 36 37 38 39 40 41 42 43 44 45 46 47 48 49 50

000
ASUS42 KMHX 192013
RWRMHX
WEATHER ROUNDUP FOR EASTERN NORTH CAROLINA
NATIONAL WEATHER SERVICE NEWPORT/MOREHEAD CITY NC
400 PM EDT THU OCT 19 2017

NOTE: "FAIR" INDICATES FEW OR NO CLOUDS BELOW 12,000 FEET
WITH NO SIGNIFICANT WEATHER AND/OR OBSTRUCTIONS TO VISIBILITY

NCZ015>017-031-032-045>047-102-103-192100-
NORTH COAST

CITY           SKY/WX    TMP DP  RH WIND       PRES   REMARKS
EDENTON        FAIR      78  55  44 CALM      30.20S
ELIZABETH CITY FAIR      76  57  51 CALM      30.19F
KITTY HAWK     FAIR      71  59  65 CALM      30.19S
MANTEO         FAIR     N/A N/A N/A E5        30.21R

$$

NCZ045>047-081-094-103-104-192100-
CENTRAL COAST

CITY           SKY/WX    TMP DP  RH WIND       PRES   REMARKS
FRISCO         FAIR      77  55  46 VRB7      30.18F

$$

NCZ095-097-098-100-101-192100-
SOUTHERN COAST

CITY           SKY/WX    TMP DP  RH WIND       PRES   REMARKS
BEAUFORT       FAIR      76  58  53 SE8       30.18S
CEDAR ISLAND   NOT AVBL
JACKSONVILLE   FAIR      78  57  48 CALM      30.18S
PINEY ISLAND     N/A    N/A N/A N/A NE8       30.19S
WILMINGTON     FAIR      78  59  51 E7        30.18F


$$

NCZ011>013-027>030-043-044-078>080-089-090>093-098-192100-
COASTAL PLAIN

CITY           SKY/WX    TMP DP  RH WIND       PRES   REMARKS
AHOSKIE        FAIR      73  55  52 NW3       30.21F
CLINTON        FAIR      78  56  46 CALM      30.20F
ELIZABETHTOWN  NOT AVBL
GOLDSBORO      SUNNY     79  52  38 CALM      30.19S
GREENVILLE     FAIR      77  50  38 CALM      30.21F
HAVELOCK       FAIR      76  59  55 NE3       30.20S
KENANSVILLE    FAIR      79  52  38 CALM      30.20S
KINSTON        FAIR      77  52  41 N6        30.20F
NEW BERN       FAIR      79  54  41 VRB3      30.20S
RICHLANDS      FAIR      78  57  48 CALM      30.19F
ROCKY MOUNT    FAIR      74  54  49 W5        30.21F
WASHINGTON     FAIR      77  54  43 N7        30.20S
WHITEVILLE     FAIR      78  56  47 CALM      30.19S

$$

AMZ130-135-150-152-154-156-158-170-250-252-270-ANZ085-086-088-633-658-670-192100-
MARINE OBSERVATIONS

STATION/POSITION TIME  TEMP    WIND        PRES    WAVE   SWELL
                       AIR SEA DIR/SP/G            HT/PER HT/PER
                 (UTC) (F)     (DEG/KT/KT) (MB)    (FT/S) (FT/S)
CHESAPEAKE LIGHT NOT AVBL
64 E VA BEACH    1950   69 69   30/  4/  4 1023.4    3/ 9   3/ 9
DUCK             1942   74 70  100/  7/  7 1022.3
2 E DUCK         2000      70                N/A     3/ 8
OREGON INLET     1942   71 66   40/  6/  8 1022.4
13E OREGON INLT  1948      71                N/A     4/ 9   3/ 9
HATTERAS CG      1942   70 69   10/  7/  8 1022.1
DIAMOND BUOY     1950   75 81   30/ 10/ 12 1021.6    5/ 9   5/ 9
CAPE LOOKOUT     2000   73      40/ 10/ 10 1021.8
BEAUFORT LAB     1942   74 70  110/  8/  9 1022.2
30 SE NEW RVR IN 1908   74      50/ 12/ 14 1021.9
30 SE NEW RVR IN NOT AVBL
27 SE WRIGHTSVLE 1908   74 76   60/ 14/ 19 1022.0
5 SE WRIGHTSVLE  1908   74 74   70/ 10/ 16 1022.2
225 S CAPE HAT   1950   78 80   40/ 16/ 19 1018.2    6/ 8   3/ 8
41 SE CHARLESTON 1950   75 79   40/ 16/ 19 1021.2    6/ 8   3/ 8

$$




USA.gov is the U.S. government's official web portal to all federal, state and local government web resources and services.